| time (UTC) | temp F | wind direction | speed MPH | gust MPH | rain 1hr in | rain 24hr in | rain mn in | humidity % | barometer mb |
| 20260904232346 | 87 | 167 | 7.0 | 24.0 | 0.00 | 0.00 | 0.00 | 15 | 1016.4 |
| 20260904231839 | 87 | 131 | 7.0 | 24.0 | 0.00 | 0.00 | 0.00 | 14 | 1016.5 |
| 20260904231334 | 87 | 192 | 5.0 | 12.0 | 0.00 | 0.00 | 0.00 | 13 | 1016.4 |
| 20260904230827 | 87 | 240 | 5.0 | 16.0 | 0.00 | 0.00 | 0.00 | 14 | 1016.2 |
| 20260904230321 | 87 | 82 | 6.0 | 16.0 | 0.00 | 0.00 | 0.00 | 14 | 1016.4 |
| 20260904225815 | 87 | 210 | 8.0 | 17.0 | 0.00 | 0.00 | 0.00 | 15 | 1016.5 |
| 20260904225309 | 87 | 204 | 9.0 | 21.0 | 0.00 | 0.00 | 0.00 | 14 | 1016.5 |
| 20260904224809 | 87 | 176 | 9.0 | 21.0 | 0.00 | 0.00 | 0.00 | 12 | 1016.6 |
| 20260904224308 | 87 | 203 | 8.0 | 24.0 | 0.00 | 0.00 | 0.00 | 12 | 1016.6 |
| 20260904223809 | 87 | 286 | 7.0 | 24.0 | 0.00 | 0.00 | 0.00 | 11 | 1016.5 |
| 20260904223311 | 87 | 212 | 7.0 | 20.0 | 0.00 | 0.00 | 0.00 | 11 | 1016.5 |
| 20260904222306 | 87 | 127 | 6.0 | 13.0 | 0.00 | 0.00 | 0.00 | 12 | 1016.5 |
| 20260904221806 | 88 | 319 | 5.0 | 16.0 | 0.00 | 0.00 | 0.00 | 13 | 1016.6 |
| 20260904221304 | 87 | 187 | 6.0 | 18.0 | 0.00 | 0.00 | 0.00 | 13 | 1016.7 |
| 20260904220805 | 86 | 167 | 8.0 | 19.0 | 0.00 | 0.00 | 0.00 | 17 | 1016.7 |
| 20260904220305 | 86 | 149 | 8.0 | 26.0 | 0.00 | 0.00 | 0.00 | 17 | 1016.6 |
| 20260904215803 | 85 | 203 | 8.0 | 26.0 | 0.00 | 0.00 | 0.00 | 17 | 1016.5 |
| 20260904215305 | 86 | 188 | 8.0 | 18.0 | 0.00 | 0.00 | 0.00 | 16 | 1016.7 |
| 20260904214802 | 86 | 202 | 9.0 | 22.0 | 0.00 | 0.00 | 0.00 | 16 | 1016.8 |
| 20260904214300 | 86 | 179 | 8.0 | 22.0 | 0.00 | 0.00 | 0.00 | 15 | 1016.8 |
| 20260904213805 | 86 | 173 | 8.0 | 19.0 | 0.00 | 0.00 | 0.00 | 14 | 1016.8 |
| 20260904213300 | 86 | 68 | 6.0 | 19.0 | 0.00 | 0.00 | 0.00 | 15 | 1016.8 |
| 20260904212752 | 87 | 181 | 7.0 | 22.0 | 0.00 | 0.00 | 0.00 | 15 | 1016.8 |
| 20260904212253 | 86 | 185 | 8.0 | 22.0 | 0.00 | 0.00 | 0.00 | 16 | 1016.8 |
| 20260904211752 | 86 | 115 | 7.0 | 14.0 | 0.00 | 0.00 | 0.00 | 16 | 1016.8 |
| 20260904211251 | 86 | 193 | 9.0 | 22.0 | 0.00 | 0.00 | 0.00 | 16 | 1016.9 |
| 20260904210750 | 86 | 148 | 9.0 | 22.0 | 0.00 | 0.00 | 0.00 | 16 | 1017.0 |
| 20260904210252 | 86 | 196 | 7.0 | 20.0 | 0.00 | 0.00 | 0.00 | 15 | 1017.2 |
| 20260904205753 | 86 | 276 | 6.0 | 20.0 | 0.00 | 0.00 | 0.00 | 17 | 1017.2 |
| 20260904204751 | 86 | 207 | 7.0 | 19.0 | 0.00 | 0.00 | 0.00 | 17 | 1016.9 |
| 20260904202751 | 86 | 165 | 6.0 | 20.0 | 0.00 | 0.00 | 0.00 | 18 | 1017.5 |
| 20260904202251 | 86 | 184 | 5.0 | 18.0 | 0.00 | 0.00 | 0.00 | 18 | 1017.4 |
| 20260904201252 | 85 | 74 | 7.0 | 29.0 | 0.00 | 0.00 | 0.00 | 19 | 1017.4 |
| 20260904200754 | 85 | 241 | 6.0 | 18.0 | 0.00 | 0.00 | 0.00 | 22 | 1017.4 |
| 20260904194752 | 84 | 179 | 7.0 | 30.0 | 0.00 | 0.00 | 0.00 | 25 | 1017.6 |
| 20260904193752 | 84 | 104 | 5.0 | 15.0 | 0.00 | 0.00 | 0.00 | 26 | 1017.6 |
| 20260904193251 | 84 | 217 | 7.0 | 21.0 | 0.00 | 0.00 | 0.00 | 28 | 1017.7 |
| 20260904192750 | 83 | 98 | 8.0 | 24.0 | 0.00 | 0.00 | 0.00 | 28 | 1017.7 |
| 20260904192252 | 83 | 210 | 8.0 | 24.0 | 0.00 | 0.00 | 0.00 | 27 | 1017.7 |
| 20260904191253 | 83 | 151 | 7.0 | 21.0 | 0.00 | 0.00 | 0.00 | 28 | 1018.0 |
| 20260904190748 | 82 | 281 | 6.0 | 18.0 | 0.00 | 0.00 | 0.00 | 28 | 1017.8 |
| 20260904190247 | 83 | 352 | 7.0 | 17.0 | 0.00 | 0.00 | 0.00 | 30 | 1018.0 |
| 20260904185748 | 82 | 149 | 9.0 | 24.0 | 0.00 | 0.00 | 0.00 | 30 | 1018.0 |
| 20260904185247 | 82 | 139 | 8.0 | 24.0 | 0.00 | 0.00 | 0.00 | 32 | 1018.2 |
| 20260904184745 | 81 | 195 | 7.0 | 24.0 | 0.00 | 0.00 | 0.00 | 33 | 1018.1 |
| 20260904184245 | 82 | 214 | 7.0 | 17.0 | 0.00 | 0.00 | 0.00 | 33 | 1018.2 |
| 20260904183745 | 82 | 103 | 8.0 | 17.0 | 0.00 | 0.00 | 0.00 | 30 | 1018.2 |
| 20260904183245 | 81 | 96 | 9.0 | 21.0 | 0.00 | 0.00 | 0.00 | 32 | 1018.2 |
| 20260904182744 | 81 | 194 | 7.0 | 21.0 | 0.00 | 0.00 | 0.00 | 31 | 1018.2 |
| 20260904182241 | 82 | 102 | 6.0 | 19.0 | 0.00 | 0.00 | 0.00 | 31 | 1018.3 |
| 20260904181240 | 80 | 195 | 8.0 | 22.0 | 0.00 | 0.00 | 0.00 | 33 | 1018.2 |
| 20260904180738 | 80 | 141 | 9.0 | 22.0 | 0.00 | 0.00 | 0.00 | 34 | 1018.3 |
| 20260904180237 | 80 | 63 | 7.0 | 19.0 | 0.00 | 0.00 | 0.00 | 33 | 1018.3 |
| 20260904175236 | 80 | 187 | 5.0 | 12.0 | 0.00 | 0.00 | 0.00 | 34 | 1018.3 |
| 20260904174738 | 80 | 191 | 6.0 | 20.0 | 0.00 | 0.00 | 0.00 | 34 | 1018.3 |
| 20260904174236 | 79 | 83 | 6.0 | 20.0 | 0.00 | 0.00 | 0.00 | 36 | 1018.3 |
| 20260904173738 | 79 | 142 | 5.0 | 18.0 | 0.00 | 0.00 | 0.00 | 36 | 1018.4 |
| 20260904173235 | 79 | 158 | 7.0 | 22.0 | 0.00 | 0.00 | 0.00 | 37 | 1018.4 |
| 20260904172234 | 78 | 123 | 9.0 | 29.0 | 0.00 | 0.00 | 0.00 | 37 | 1018.4 |
| 20260904171734 | 78 | 123 | 9.0 | 29.0 | 0.00 | 0.00 | 0.00 | 37 | 1018.4 |
| 20260904170735 | 77 | 103 | 9.0 | 23.0 | 0.00 | 0.00 | 0.00 | 40 | 1018.3 |
| 20260904170229 | 77 | 153 | 8.0 | 23.0 | 0.00 | 0.00 | 0.00 | 39 | 1018.2 |
| 20260904165723 | 77 | 169 | 8.0 | 18.0 | 0.00 | 0.00 | 0.00 | 39 | 1018.1 |
| 20260904165217 | 77 | 131 | 6.0 | 19.0 | 0.00 | 0.00 | 0.00 | 39 | 1018.1 |
| 20260904164711 | 77 | 232 | 6.0 | 22.0 | 0.00 | 0.00 | 0.00 | 40 | 1018.2 |
| 20260904164205 | 77 | 79 | 6.0 | 22.0 | 0.00 | 0.00 | 0.00 | 40 | 1018.1 |
| 20260904163700 | 77 | 233 | 7.0 | 19.0 | 0.00 | 0.00 | 0.00 | 40 | 1018.1 |
| 20260904163153 | 76 | 141 | 7.0 | 22.0 | 0.00 | 0.00 | 0.00 | 40 | 1018.1 |
| 20260904162648 | 77 | 165 | 6.0 | 22.0 | 0.00 | 0.00 | 0.00 | 39 | 1018.2 |
| 20260904162140 | 76 | 255 | 7.0 | 18.0 | 0.00 | 0.00 | 0.00 | 38 | 1018.0 |
| 20260904161635 | 76 | 101 | 6.0 | 18.0 | 0.00 | 0.00 | 0.00 | 39 | 1018.1 |
| 20260904161129 | 76 | 119 | 6.0 | 18.0 | 0.00 | 0.00 | 0.00 | 40 | 1018.1 |
| 20260904160623 | 75 | 266 | 7.0 | 18.0 | 0.00 | 0.00 | 0.00 | 41 | 1018.1 |
| 20260904160118 | 75 | 148 | 7.0 | 18.0 | 0.00 | 0.00 | 0.00 | 41 | 1017.8 |
| 20260904155611 | 75 | 125 | 8.0 | 18.0 | 0.00 | 0.00 | 0.00 | 41 | 1018.0 |
| 20260904155105 | 75 | 169 | 8.0 | 22.0 | 0.00 | 0.00 | 0.00 | 40 | 1017.8 |
| 20260904154559 | 75 | 183 | 6.0 | 22.0 | 0.00 | 0.00 | 0.00 | 39 | 1017.8 |
| 20260904154054 | 75 | 195 | 6.0 | 20.0 | 0.00 | 0.00 | 0.00 | 37 | 1017.8 |
| 20260904153041 | 74 | 160 | 6.0 | 16.0 | 0.00 | 0.00 | 0.00 | 36 | 1017.7 |
| 20260904152535 | 74 | 98 | 6.0 | 15.0 | 0.00 | 0.00 | 0.00 | 35 | 1017.7 |
| 20260904152030 | 74 | 148 | 5.0 | 16.0 | 0.00 | 0.00 | 0.00 | 34 | 1017.7 |
| 20260904151523 | 74 | 139 | 5.0 | 16.0 | 0.00 | 0.00 | 0.00 | 32 | 1017.7 |
| 20260904151016 | 74 | 121 | 6.0 | 25.0 | 0.00 | 0.00 | 0.00 | 31 | 1017.7 |
| 20260904150511 | 74 | 181 | 6.0 | 25.0 | 0.00 | 0.00 | 0.00 | 30 | 1017.6 |
| 20260904150005 | 74 | 181 | 4.0 | 17.0 | 0.00 | 0.00 | 0.00 | 29 | 1017.6 |
| 20260904145459 | 74 | 191 | 3.0 | 17.0 | 0.00 | 0.00 | 0.00 | 28 | 1017.6 |
| 20260904144953 | 74 | 224 | 3.0 | 14.0 | 0.00 | 0.00 | 0.00 | 27 | 1017.5 |
| 20260904144447 | 73 | 77 | 4.0 | 14.0 | 0.00 | 0.00 | 0.00 | 26 | 1017.5 |
| 20260904143941 | 73 | 262 | 4.0 | 10.0 | 0.00 | 0.00 | 0.00 | 24 | 1017.5 |
| 20260904143435 | 73 | 167 | 3.0 | 10.0 | 0.00 | 0.00 | 0.00 | 24 | 1017.4 |
| 20260904142929 | 73 | 268 | 2.0 | 10.0 | 0.00 | 0.00 | 0.00 | 21 | 1017.4 |
| 20260904142429 | 73 | 325 | 2.0 | 10.0 | 0.00 | 0.00 | 0.00 | 21 | 1017.4 |
| 20260904141926 | 72 | 231 | 3.0 | 11.0 | 0.00 | 0.00 | 0.00 | 18 | 1017.3 |
| 20260904141425 | 72 | 215 | 2.0 | 11.0 | 0.00 | 0.00 | 0.00 | 19 | 1017.4 |
| 20260904140923 | 72 | 300 | 2.0 | 11.0 | 0.00 | 0.00 | 0.00 | 18 | 1017.3 |
| 20260904135920 | 71 | 252 | 3.0 | 12.0 | 0.00 | 0.00 | 0.00 | 19 | 1017.0 |
| 20260904134913 | 0 | 0.0 | 0.0 | 0.00 | 0.00 | 0.00 | 1016.7 | ||
| 20260904134412 | 0 | 0.0 | 0.0 | 0.00 | 0.00 | 0.00 | 1016.8 | ||
| 20260904133909 | 0 | 0.0 | 0.0 | 0.00 | 0.00 | 0.00 | 1016.7 | ||
| 20260904133320 | 0 | 0.0 | 0.0 | 0.00 | 0.00 | 0.00 | 1016.7 | ||
| 20260904132819 | 0 | 0.0 | 0.0 | 0.00 | 0.00 | 0.00 | 1016.7 | ||
| 20260904132212 | 0 | 0.0 | 0.0 | 0.00 | 0.00 | 0.00 | 1016.7 | ||
| 20260904131209 | 0 | 0.0 | 0.0 | 0.00 | 0.00 | 0.00 | 1016.6 | ||
| 20260904130710 | 0 | 0.0 | 0.0 | 0.00 | 0.00 | 0.00 | 1016.6 | ||
| 20260904124515 | 0 | 0.0 | 0.0 | 0.00 | 0.00 | 0.00 | 1016.4 | ||
| 20260904123922 | 0 | 0.0 | 0.0 | 0.00 | 0.00 | 0.00 | 1016.4 | ||
| 20260904123412 | 0 | 0.0 | 0.0 | 0.00 | 0.00 | 0.00 | 1016.4 | ||
| 20260904122412 | 0 | 186 | 3.0 | 9.0 | 0.00 | 0.00 | 0.00 | 1016.4 | |
| 20260904121813 | 0 | 186 | 3.0 | 5.0 | 0.00 | 0.00 | 0.00 | 1016.2 | |
| 20260904121250 | 70 | 186 | 3.0 | 9.0 | 0.00 | 0.00 | 0.00 | 7 | 1016.4 |
| 20260904120746 | 70 | 120 | 3.0 | 9.0 | 0.00 | 0.00 | 0.00 | 7 | 1016.4 |
| 20260904120246 | 70 | 126 | 3.0 | 9.0 | 0.00 | 0.00 | 0.00 | 7 | 1016.4 |
| 20260904115746 | 70 | 142 | 3.0 | 7.0 | 0.00 | 0.00 | 0.00 | 7 | 1016.4 |
| 20260904115245 | 70 | 124 | 4.0 | 9.0 | 0.00 | 0.00 | 0.00 | 7 | 1016.4 |
| 20260904114743 | 70 | 152 | 3.0 | 9.0 | 0.00 | 0.00 | 0.00 | 7 | 1016.4 |
| 20260904114242 | 70 | 158 | 3.0 | 11.0 | 0.00 | 0.00 | 0.00 | 7 | 1016.4 |
| 20260904113742 | 70 | 212 | 3.0 | 11.0 | 0.00 | 0.00 | 0.00 | 7 | 1016.4 |
| 20260904112741 | 70 | 96 | 4.0 | 10.0 | 0.00 | 0.00 | 0.00 | 7 | 1016.4 |
| 20260904111739 | 70 | 224 | 4.0 | 12.0 | 0.00 | 0.00 | 0.00 | 7 | 1016.4 |
| 20260904111241 | 70 | 148 | 3.0 | 12.0 | 0.00 | 0.00 | 0.00 | 7 | 1016.4 |
| 20260904110240 | 70 | 167 | 2.0 | 7.0 | 0.00 | 0.00 | 0.00 | 8 | 1016.2 |
| 20260904105740 | 70 | 130 | 3.0 | 7.0 | 0.00 | 0.00 | 0.00 | 8 | 1016.1 |
| 20260904104742 | 71 | 203 | 4.0 | 8.0 | 0.00 | 0.00 | 0.00 | 9 | 1016.1 |
| 20260904104235 | 71 | 169 | 4.0 | 8.0 | 0.00 | 0.00 | 0.00 | 9 | 1016.0 |
| 20260904103735 | 71 | 181 | 4.0 | 9.0 | 0.00 | 0.00 | 0.00 | 9 | 1016.1 |
| 20260904103236 | 71 | 192 | 4.0 | 9.0 | 0.00 | 0.00 | 0.00 | 9 | 1016.1 |
| 20260904102736 | 71 | 162 | 3.0 | 9.0 | 0.00 | 0.00 | 0.00 | 9 | 1016.1 |
| 20260904102237 | 71 | 127 | 5.0 | 11.0 | 0.00 | 0.00 | 0.00 | 10 | 1016.0 |
| 20260904101736 | 71 | 131 | 6.0 | 11.0 | 0.00 | 0.00 | 0.00 | 9 | 1015.9 |
| 20260904101236 | 71 | 140 | 5.0 | 14.0 | 0.00 | 0.00 | 0.00 | 10 | 1015.9 |
| 20260904100736 | 71 | 179 | 4.0 | 14.0 | 0.00 | 0.00 | 0.00 | 10 | 1015.9 |
| 20260904095737 | 70 | 169 | 3.0 | 10.0 | 0.00 | 0.00 | 0.00 | 11 | 1015.9 |
| 20260904095237 | 71 | 157 | 4.0 | 10.0 | 0.00 | 0.00 | 0.00 | 11 | 1015.8 |
| 20260904094740 | 71 | 103 | 5.0 | 11.0 | 0.00 | 0.00 | 0.00 | 12 | 1015.8 |
| 20260904093737 | 71 | 119 | 5.0 | 13.0 | 0.00 | 0.00 | 0.00 | 11 | 1015.8 |
| 20260904092739 | 73 | 98 | 5.0 | 18.0 | 0.00 | 0.00 | 0.00 | 16 | 1015.7 |
| 20260904092238 | 72 | 203 | 4.0 | 8.0 | 0.00 | 0.00 | 0.00 | 14 | 1015.7 |
| 20260904091739 | 71 | 103 | 4.0 | 10.0 | 0.00 | 0.00 | 0.00 | 16 | 1015.7 |
| 20260904091232 | 70 | 185 | 3.0 | 10.0 | 0.00 | 0.00 | 0.00 | 15 | 1015.7 |
| 20260904090728 | 70 | 110 | 3.0 | 7.0 | 0.00 | 0.00 | 0.00 | 12 | 1015.8 |
| 20260904090222 | 70 | 216 | 2.0 | 6.0 | 0.00 | 0.00 | 0.00 | 11 | 1015.8 |
| 20260904085715 | 70 | 157 | 2.0 | 6.0 | 0.00 | 0.00 | 0.00 | 11 | 1015.9 |
| 20260904085209 | 70 | 124 | 3.0 | 8.0 | 0.00 | 0.00 | 0.00 | 11 | 1015.8 |
| 20260904084703 | 70 | 114 | 3.0 | 12.0 | 0.00 | 0.00 | 0.00 | 10 | 1015.8 |
| 20260904084157 | 71 | 170 | 2.0 | 12.0 | 0.00 | 0.00 | 0.00 | 10 | 1015.8 |
| 20260904083651 | 71 | 96 | 2.0 | 8.0 | 0.00 | 0.00 | 0.00 | 10 | 1015.8 |
| 20260904083145 | 71 | 89 | 3.0 | 12.0 | 0.00 | 0.00 | 0.00 | 10 | 1015.8 |
| 20260904082639 | 71 | 208 | 5.0 | 15.0 | 0.00 | 0.00 | 0.00 | 10 | 1015.8 |
| 20260904082133 | 71 | 127 | 5.0 | 15.0 | 0.00 | 0.00 | 0.00 | 10 | 1015.8 |
| 20260904081627 | 71 | 107 | 5.0 | 11.0 | 0.00 | 0.00 | 0.00 | 11 | 1015.9 |
| 20260904080106 | 71 | 164 | 5.0 | 12.0 | 0.00 | 0.00 | 0.00 | 12 | 1016.0 |
| 20260904075605 | 71 | 177 | 5.0 | 15.0 | 0.00 | 0.00 | 0.00 | 12 | 1016.0 |
| 20260904075050 | 72 | 158 | 6.0 | 15.0 | 0.00 | 0.00 | 0.00 | 12 | 1016.0 |
| 20260904074544 | 72 | 110 | 6.0 | 15.0 | 0.00 | 0.00 | 0.00 | 13 | 1016.0 |
| 20260904074038 | 72 | 155 | 6.0 | 12.0 | 0.00 | 0.00 | 0.00 | 13 | 1016.1 |
| 20260904073532 | 72 | 222 | 6.0 | 14.0 | 0.00 | 0.00 | 0.00 | 13 | 1016.1 |
| 20260904073026 | 72 | 157 | 6.0 | 14.0 | 0.00 | 0.00 | 0.00 | 13 | 1016.0 |
| 20260904072521 | 72 | 115 | 5.0 | 14.0 | 0.00 | 0.00 | 0.00 | 14 | 1016.0 |
| 20260904072016 | 72 | 165 | 5.0 | 16.0 | 0.00 | 0.00 | 0.00 | 14 | 1015.9 |
| 20260904071515 | 72 | 195 | 4.0 | 16.0 | 0.00 | 0.00 | 0.00 | 15 | 1016.0 |
| 20260904071013 | 72 | 188 | 4.0 | 11.0 | 0.00 | 0.00 | 0.00 | 15 | 1015.9 |
| 20260904070514 | 73 | 212 | 5.0 | 11.0 | 0.00 | 0.00 | 0.00 | 16 | 1015.9 |
| 20260904070014 | 72 | 205 | 5.0 | 14.0 | 0.00 | 0.00 | 0.00 | 16 | 1015.9 |
| 20260904065509 | 73 | 153 | 4.0 | 14.0 | 0.00 | 0.00 | 0.00 | 17 | 1016.0 |
| 20260904065010 | 73 | 204 | 3.0 | 12.0 | 0.00 | 0.00 | 0.00 | 17 | 1015.9 |
| 20260904064509 | 73 | 91 | 4.0 | 11.0 | 0.00 | 0.00 | 0.00 | 18 | 1015.9 |
| 20260904063509 | 73 | 115 | 4.0 | 10.0 | 0.00 | 0.00 | 0.00 | 18 | 1015.9 |
| 20260904062509 | 73 | 98 | 4.0 | 11.0 | 0.00 | 0.00 | 0.00 | 19 | 1015.9 |
| 20260904062011 | 73 | 105 | 4.0 | 16.0 | 0.00 | 0.00 | 0.00 | 19 | 1015.8 |
| 20260904061509 | 73 | 89 | 5.0 | 16.0 | 0.00 | 0.00 | 0.00 | 19 | 1015.8 |
| 20260904061009 | 73 | 123 | 4.0 | 13.0 | 0.00 | 0.00 | 0.00 | 19 | 1015.7 |
| 20260904060509 | 73 | 145 | 4.0 | 13.0 | 0.00 | 0.00 | 0.00 | 20 | 1015.7 |
| 20260904060013 | 73 | 105 | 3.0 | 12.0 | 0.00 | 0.00 | 0.00 | 21 | 1015.7 |
| 20260904055507 | 73 | 136 | 3.0 | 9.0 | 0.00 | 0.00 | 0.00 | 23 | 1015.7 |
| 20260904055001 | 73 | 104 | 3.0 | 10.0 | 0.00 | 0.00 | 0.00 | 23 | 1015.7 |
| 20260904054455 | 73 | 172 | 2.0 | 10.0 | 0.00 | 0.00 | 0.00 | 24 | 1015.7 |
| 20260904053949 | 74 | 214 | 3.0 | 6.0 | 0.00 | 0.00 | 0.00 | 25 | 1015.7 |
| 20260904053444 | 74 | 210 | 4.0 | 10.0 | 0.00 | 0.00 | 0.00 | 26 | 1015.8 |
| 20260904051419 | 74 | 166 | 3.0 | 9.0 | 0.00 | 0.00 | 0.00 | 27 | 1015.8 |
| 20260904050913 | 74 | 205 | 3.0 | 9.0 | 0.00 | 0.00 | 0.00 | 27 | 1015.7 |
| 20260904050407 | 74 | 227 | 3.0 | 12.0 | 0.00 | 0.00 | 0.00 | 26 | 1015.8 |
| 20260904045355 | 74 | 203 | 2.0 | 9.0 | 0.00 | 0.00 | 0.00 | 26 | 1015.9 |
| 20260904044849 | 75 | 187 | 3.0 | 7.0 | 0.00 | 0.00 | 0.00 | 26 | 1015.9 |
| 20260904044345 | 75 | 152 | 2.0 | 9.0 | 0.00 | 0.00 | 0.00 | 26 | 1015.9 |
| 20260904043331 | 76 | 231 | 4.0 | 9.0 | 0.00 | 0.00 | 0.00 | 26 | 1015.9 |
| 20260904041307 | 76 | 165 | 4.0 | 14.0 | 0.00 | 0.00 | 0.00 | 30 | 1015.8 |
| 20260904040801 | 76 | 191 | 5.0 | 14.0 | 0.00 | 0.00 | 0.00 | 30 | 1015.8 |
| 20260904040255 | 76 | 174 | 4.0 | 11.0 | 0.00 | 0.00 | 0.00 | 29 | 1015.8 |
| 20260904035750 | 76 | 146 | 3.0 | 11.0 | 0.00 | 0.00 | 0.00 | 28 | 1015.8 |
| 20260904034227 | 76 | 162 | 4.0 | 11.0 | 0.00 | 0.00 | 0.00 | 26 | 1015.6 |
| 20260904033721 | 76 | 239 | 3.0 | 11.0 | 0.00 | 0.00 | 0.00 | 25 | 1015.6 |
| 20260904033218 | 76 | 197 | 3.0 | 11.0 | 0.00 | 0.00 | 0.00 | 25 | 1015.6 |
| 20260904032218 | 76 | 266 | 3.0 | 11.0 | 0.00 | 0.00 | 0.00 | 24 | 1015.4 |
| 20260904031717 | 76 | 204 | 3.0 | 8.0 | 0.00 | 0.00 | 0.00 | 23 | 1015.3 |
| 20260904031219 | 77 | 207 | 3.0 | 8.0 | 0.00 | 0.00 | 0.00 | 23 | 1015.3 |
| 20260904030716 | 77 | 143 | 3.0 | 8.0 | 0.00 | 0.00 | 0.00 | 23 | 1015.3 |
| 20260904030218 | 77 | 224 | 4.0 | 9.0 | 0.00 | 0.00 | 0.00 | 22 | 1015.3 |
| 20260904025717 | 77 | 160 | 2.0 | 9.0 | 0.00 | 0.00 | 0.00 | 22 | 1015.3 |
| 20260904025219 | 77 | 232 | 2.0 | 6.0 | 0.00 | 0.00 | 0.00 | 22 | 1015.3 |
| 20260904024215 | 77 | 206 | 3.0 | 8.0 | 0.00 | 0.00 | 0.00 | 21 | 1015.2 |
| 20260904023714 | 77 | 179 | 4.0 | 16.0 | 0.00 | 0.00 | 0.00 | 21 | 1015.2 |
| 20260904023213 | 78 | 193 | 4.0 | 16.0 | 0.00 | 0.00 | 0.00 | 20 | 1015.2 |
| 20260904022713 | 78 | 195 | 3.0 | 9.0 | 0.00 | 0.00 | 0.00 | 20 | 1015.2 |
| 20260904021714 | 78 | 209 | 4.0 | 10.0 | 0.00 | 0.00 | 0.00 | 19 | 1015.1 |
| 20260904021214 | 78 | 173 | 4.0 | 16.0 | 0.00 | 0.00 | 0.00 | 18 | 1015.1 |
| 20260904020708 | 78 | 146 | 4.0 | 16.0 | 0.00 | 0.00 | 0.00 | 18 | 1015.1 |
| 20260904020202 | 78 | 210 | 4.0 | 12.0 | 0.00 | 0.00 | 0.00 | 18 | 1015.2 |
| 20260904015702 | 79 | 174 | 4.0 | 12.0 | 0.00 | 0.00 | 0.00 | 18 | 1015.2 |
| 20260904014202 | 79 | 205 | 3.0 | 8.0 | 0.00 | 0.00 | 0.00 | 16 | 1015.2 |
| 20260904013702 | 80 | 180 | 6.0 | 18.0 | 0.00 | 0.00 | 0.00 | 16 | 1015.4 |
| 20260904012701 | 81 | 203 | 7.0 | 20.0 | 0.00 | 0.00 | 0.00 | 14 | 1015.2 |
| 20260904012158 | 82 | 145 | 5.0 | 15.0 | 0.00 | 0.00 | 0.00 | 14 | 1015.3 |
| 20260904011700 | 83 | 126 | 3.0 | 12.0 | 0.00 | 0.00 | 0.00 | 15 | 1015.2 |
| 20260904010658 | 83 | 217 | 4.0 | 12.0 | 0.00 | 0.00 | 0.00 | 14 | 1015.3 |
| 20260904010159 | 84 | 215 | 5.0 | 10.0 | 0.00 | 0.00 | 0.00 | 14 | 1015.3 |
| 20260904005656 | 84 | 268 | 5.0 | 16.0 | 0.00 | 0.00 | 0.00 | 14 | 1015.3 |
| 20260904005158 | 84 | 237 | 4.0 | 16.0 | 0.00 | 0.00 | 0.00 | 13 | 1015.2 |
| 20260904004655 | 84 | 240 | 4.0 | 14.0 | 0.00 | 0.00 | 0.00 | 14 | 1015.2 |
| 20260904004159 | 84 | 229 | 5.0 | 14.0 | 0.00 | 0.00 | 0.00 | 14 | 1015.3 |
| 20260904003656 | 85 | 200 | 6.0 | 13.0 | 0.00 | 0.00 | 0.00 | 14 | 1015.3 |
| 20260904003155 | 85 | 164 | 5.0 | 13.0 | 0.00 | 0.00 | 0.00 | 13 | 1015.2 |
| 20260904002656 | 85 | 218 | 5.0 | 12.0 | 0.00 | 0.00 | 0.00 | 14 | 1015.3 |
| 20260904002156 | 85 | 224 | 5.0 | 16.0 | 0.00 | 0.00 | 0.00 | 14 | 1015.2 |
| 20260904001655 | 85 | 200 | 5.0 | 16.0 | 0.00 | 0.00 | 0.00 | 13 | 1015.2 |
| 20260904001157 | 85 | 268 | 6.0 | 14.0 | 0.00 | 0.00 | 0.00 | 13 | 1015.2 |
| 20260904000151 | 85 | 192 | 6.0 | 17.0 | 0.00 | 0.00 | 0.00 | 14 | 1015.2 |
| 20260903235651 | 86 | 106 | 5.0 | 15.0 | 0.00 | 0.00 | 0.00 | 13 | 1015.2 |
| 20260903234650 | 86 | 155 | 5.0 | 12.0 | 0.00 | 0.00 | 0.00 | 14 | 1015.3 |
| 20260903234150 | 86 | 220 | 5.0 | 12.0 | 0.00 | 0.00 | 0.00 | 15 | 1015.4 |
| 20260903233652 | 86 | 179 | 4.0 | 12.0 | 0.00 | 0.00 | 0.00 | 15 | 1015.4 |
| 20260903233151 | 86 | 230 | 4.0 | 12.0 | 0.00 | 0.00 | 0.00 | 14 | 1015.3 |
| 20260903232652 | 86 | 76 | 6.0 | 17.0 | 0.00 | 0.00 | 0.00 | 13 | 1015.6 |